Simultaneous Nadir Overpasses (SNOs) Predictions

Prediction of SNOs near equator between AQUA and NPP Satellite Orbit:

Table of predicted SNOs near equator for the next 14.0 days since TLE Epoch: 8/11/2018
Index Date (AQUA) Time (AQUA) AQUA Lat,Lon Date (NPP) Time (NPP) NPP Lat,Lon Distance(km) Time Diff (sec)
1 08/12/2018 16:32:13 -26.07, 131.87 08/12/2018 16:22:13 -26.11, 131.49 38.61 600
2 08/12/2018 17:15:08 2.24, -55.16 08/12/2018 17:06:14 2.16, -55.55 44.25 534
3 08/12/2018 18:03:16 2.28, 113.46 08/12/2018 17:55:37 2.39, 112.80 73.75 459
4 08/15/2018 08:42:52 -5.10,-107.51 08/15/2018 08:33:11 -5.07,-107.73 24.89 581
5 08/15/2018 09:31:06 0.49, 61.10 08/15/2018 09:22:41 0.40, 60.61 54.96 505
6 08/15/2018 10:19:14 4.03,-130.29 08/15/2018 10:12:04 4.16,-131.03 84.27 430
7 08/18/2018 00:58:50 -3.36, 8.75 08/18/2018 00:49:38 -3.30, 8.43 35.61 552
8 08/18/2018 01:47:03 -1.31, 177.37 08/18/2018 01:39:07 -1.42, 176.79 65.57 476
9 08/18/2018 02:35:12 5.77, -14.03 08/18/2018 02:28:31 5.92, -14.87 94.68 401
10 08/20/2018 16:26:38 6.08, -43.60 08/20/2018 16:16:40 6.05, -43.75 16.70 598
11 08/20/2018 17:14:46 -1.56, 125.02 08/20/2018 17:06:03 -1.48, 124.61 46.31 523
12 08/20/2018 18:03:00 -3.05, -66.38 08/20/2018 17:55:33 -3.18, -67.05 76.19 447
13 08/23/2018 08:42:36 4.35, 72.66 08/23/2018 08:33:07 4.29, 72.42 27.46 569
14 08/23/2018 09:30:44 0.17,-118.73 08/23/2018 09:22:30 0.28,-119.23 57.08 494
15 08/23/2018 10:18:58 -4.78, 49.88 08/23/2018 10:12:00 -4.94, 49.11 86.73 418




NCC Satellite Simultaneous Nadir Overpasses (SNOs) Prediction Service
